This demonstration page uses our WeatherBlox Daily Observations layout. Learn more.

Left ArrowRight Arrow

41.12389, -100.76542

Hourly Observations for May 28, 2017

Temp ( °F °C ) Dew Point ( °F °C ) Humidity (%) Winds ( mph kmh ) Pressure ( in mb ) Visibility ( mi km ) Precip ( " mm )
12:53 am 00:53 Clear with Mist and Fog 47 8.3 46 7.8 97 97 WNW 5 7 30.07 1018 5 8 0.00 0.00
1:53 am 01:53 Clear 45 7.2 44 6.7 97 97 WNW 5 7 30.06 1018 10 16 0.00 0.00
2:53 am 02:53 Clear 42 5.6 41 5 96 96 NW 7 11 30.05 1018 10 16 0.00 0.00
3:53 am 03:53 Clear 42 5.6 41 5 96 96 NW 7 11 30.03 1017 10 16 0.00 0.00
4:53 am 04:53 Clear 43 6.1 41 5 93 93 NW 9 15 30.03 1017 10 16 0.00 0.00
5:53 am 05:53 Clear 42 5.6 41 5 96 96 WNW 6 9 30.04 1017 10 16 0.00 0.00
6:53 am 06:53 Sunny 43 6.1 42 5.6 97 97 WNW 6 9 30.06 1018 10 16 0.00 0.00
7:53 am 07:53 Sunny 51 10.6 47 8.3 86 86 WNW 9 15 30.06 1018 10 16 0.00 0.00
8:53 am 08:53 Sunny 56 13.3 47 8.3 72 72 W 13 20 30.06 1018 10 16 0.00 0.00
9:53 am 09:53 Sunny 63 17.2 49 9.4 60 60 W 12 19 30.05 1018 10 16 0.00 0.00
10:53 am 10:53 Sunny 70 21.1 51 10.6 51 51 W 14 22 30.04 1017 10 16 0.00 0.00
11:53 am 11:53 Partly Cloudy 74 23.3 46 7.8 37 37 NW 17 28 30.04 1017 10 16 0.00 0.00
12:53 pm 12:53 Partly Cloudy 75 23.9 42 5.6 31 31 NW 18 30 30.03 1017 10 16 0.00 0.00
1:53 pm 13:53 Partly Cloudy 77 25 46 7.8 33 33 WNW 16 26 30.02 1017 10 16 0.00 0.00
2:53 pm 14:53 Partly Cloudy 74 23.3 46 7.8 37 37 NW 13 20 30.03 1017 10 16 0.00 0.00
3:53 pm 15:53 Mostly Cloudy 76 24.4 49 9.4 39 39 NNW 12 19 30.02 1017 10 16 0.01 0.25
4:50 pm 16:50 Partly Cloudy 75 24 45 7 34 34 N 14 22 29.88 1012 10 16 0.00 0.00
4:53 pm 16:53 Partly Cloudy 75 23.9 45 7.2 34 34 N 9 15 30.01 1016 10 16 0.00 0.00
5:53 pm 17:53 Partly Cloudy 77 25 50 10 39 39 N 8 13 29.99 1016 10 16 0.00 0.00
6:53 pm 18:53 Mostly Sunny 75 23.9 48 8.9 39 39 NW 9 15 29.98 1015 10 16 0.00 0.00
7:53 pm 19:53 Partly Cloudy 65 18.3 47 8.3 52 52 N 15 24 30.01 1016 10 16 0.00 0.00
8:53 pm 20:53 Cloudy 62 16.7 47 8.3 58 58 NW 3 6 30.03 1017 10 16 0.00 0.00
9:53 pm 21:53 Mostly Cloudy 57 13.9 53 11.7 87 87 WSW 7 11 30.02 1017 10 16 0.02 0.51
10:53 pm 22:53 Clear 56 13.3 47 8.3 72 72 NNW 5 7 30.05 1018 10 16 0.00 0.00
11:53 pm 23:53 Clear 51 10.6 47 8.3 86 86 W 7 11 30.04 1017 10 16 0.00 0.00

Powered by AerisWeather